STARLINK-4437 (53506 NORAD) Tracking and Keplerian Element Data

This shows tracking and keplerian element data for the satellite.

Feedback or suggestion? Click here.




ElementValue
Catalog53506
NameSTARLINK-4437
Epoch Orbit1552
Epoch Day325.26030949
Epoch Year2022
RAAN84.3233
Inclination97.6551
Eccentricity0.0002278
Argument of Perigee24.2726
Mean Anonmoly335.8605
Mean Motion15.01259591
Decay Rate6.19E-06
L11 53506U 22099AT 22325.26030949 .00000619 00000+0 52759-4 0 9995
L22 53506 97.6551 84.3233 0002278 24.2726 335.8605 15.01259591 15520



Live tracking and technical data element details for STARLINK-4437 (NORAD 53506). STARLINK-4437 can be tracked NOW for your location showing map with azimuth and elevation plus other details from your city location.







IsCatalogInMostPopularTable: catalog: 53506, numindb: 5
Update: records affected: 1



GetName: 53506 STARLINK-4437

Hit Count: updated at: Tue, 29 Nov 2022 01:58:12 GMT